Weather in Urunkhaika

Kazakhstan     48°47′09″N   86°01′37″E
temp.,
°C
wind,
m/s
gust,
m/s
humid.,
%
clouds,
%
prec.,
mm/h
press.,
hPa
HPBL,
m
19 september, sun
sun1900:00+7sse01530 0.0 101325
03:00+6se22630 0.0 101329
06:00+4e22635 0.0 101424
09:00+12s13292 0.0 1012619
12:00+15wsw351941 0.0 10111057
15:00+15wsw361753 0.0 10091049
18:00+11s33315 0.0 101030
21:00+8se22385 0.0 101121
20 september, mon
mon2000:00+8s334197 0.0 101061
03:00+8ssw5945100 0.0 1009328
06:00+7wsw711392 0.0 1012606
09:00+8wsw68290 0.0 10131163
12:00+10sw56160 0.0 10121279
15:00+10sw78150 0.0 10111490
18:00+6sw68205 0.0 1013411
21:000s123359 0.0 101794
21 september, tue
tue2100:00−2ene12470 0.0 1019100
03:00−3e11536 0.0 102085
06:00−4e11560 0.0 1020109
09:00+4sw22385 0.0 1016645
12:00+7sw5729100 0.0 10131526
15:00+7wsw7730100 0.0 10111547
18:00+4wsw563833 0.0 1013307
21:00−1nw11560 0.0 1017131
22 september, wed
wed2200:00−2sw12622 0.0 1018170
03:00−4se12690 0.0 1019155
06:00−6ese11752 0.0 1021131
09:00+2sw11440 0.0 1019607
12:00+5wsw33320 0.0 10171021
15:00+6wsw332694 0.0 1015899
18:00+2sw2238100 0.0 1017135
21:00−1s1147100 0.0 102091
23 september, thu
thu2300:00−3se115012 0.0 1021116
03:00−4e224634 0.0 102291
06:00−5e22525 0.0 102442
09:00+4s122999 0.0 1019547
12:00+6wsw4527100 0.0 10181095
15:00+7sw56260 0.0 10171432
18:00+2ssw4535100 0.0 1019238
21:00−1se2245100 0.0 102189